"Pseudo-MPEC" for P21JwCe

Created 2023 Sep 27 1:22:17 UT using Find_Orb

Click here for an explanation of pseudo-MPECs

 
 Astrometry: 
     P21JwCe* C2023 09 14n@q=mAstrometrywqXredacted;dorclickkWqC4Y5@'u!)[]VGiF52
     P21JwCe  C2023 09 14=2^7^!*[L=B5Ey,hga![)R\fgsv5chere9!GP_for5AORuKA@$'cF52
     P21JwCe  C2023 09 14lBdH$GT:4B4dWQ$2xTrTCm]explanationOh.JbgRK3tj[R7jm%2F52

Station data:
(F52) Pan-STARRS 2, Haleakala  (N20.707382 W156.255910)  US/Hawaii.
   Observers J. Bulger, T. Dukes, T. Lowe, A. Schultz, M. Willman. Measurers
   K. Chambers, S. Chastel, T. de Boer, L. Denneau, J. Fairlamb, H.
   Flewelling, M. Huber, C.-C. Lin, E. Magnier, Y. Ramanjooloo, R. Wainscoat,
   R. Weryk. 1.8-m Ritchey-Chrétien + CCD.

Orbital elements:  P21JwCe
   Perihelion 2023 Nov 20.23150 +/- 53.9 TT =  5:33:21 (JD 2460268.73150)
Epoch 2023 Sep 14.0 TT = JDT 2460201.5   Earth MOID: 0.4205   Ju: 0.9922
M 347.33772029 +/- 16               Ma: 0.0648                   AutoNEOCP
n   0.18833849 +/- 0.212            Peri.   94.65648 +/- 90
a   3.01423185 +/- 2.26             Node   303.93112 +/- 49
e   0.5365302 +/- 0.243             Incl.    5.65237 +/- 4.4
P   5.23                   H 22.03  G  0.15   U 11.7  SR
q 1.39700519 +/- 0.523    Q 4.63145851 +/- 113            (J2000 ecliptic)
From 3 observations 2023 Sept. 14 (33.2 min); mean residual 0".05
Residuals in arcseconds: 
230914 F52  .04-  .03-    230914 F52  .09+  .06+    230914 F52  .04-  .03-    

Ephemerides (geocentric):
Date (UTC) HH   RA             Dec           delta  r     elong  mag " sig PA
---- --------  ------------   ------------  ------ ------ -----  --- --------
2023 09 27 01  23 17 57.977   +10 29 54.03  .52031 1.5090 163.7 22.2  44d  96
2023 09 27 02  23 17 56.695   +10 30 07.69  .52021 1.5088 163.7 22.2  44d  96
2023 09 27 03  23 17 55.415   +10 30 21.33  .52011 1.5087 163.6 22.2  44d  96
2023 09 27 04  23 17 54.136   +10 30 34.95  .52000 1.5085 163.6 22.2  44d  96
2023 09 27 05  23 17 52.859   +10 30 48.56  .51990 1.5083 163.6 22.2  44d  96
2023 09 27 06  23 17 51.584   +10 31 02.15  .51980 1.5082 163.5 22.2  44d  96
2023 09 27 07  23 17 50.311   +10 31 15.72  .51969 1.5080 163.5 22.2  44d  96
2023 09 27 08  23 17 49.040   +10 31 29.28  .51959 1.5078 163.5 22.2  44d  96
2023 09 27 09  23 17 47.770   +10 31 42.82  .51949 1.5077 163.5 22.2  44d  96
2023 09 27 10  23 17 46.502   +10 31 56.35  .51939 1.5075 163.4 22.2  44d  96
2023 09 27 11  23 17 45.236   +10 32 09.86  .51929 1.5074 163.4 22.2  44d  96
2023 09 27 12  23 17 43.972   +10 32 23.35  .51919 1.5072 163.4 22.2  44d  96
2023 09 27 13  23 17 42.710   +10 32 36.83  .51908 1.5070 163.3 22.2  44d  96
2023 09 27 14  23 17 41.450   +10 32 50.29  .51898 1.5069 163.3 22.2  44d  96
2023 09 27 15  23 17 40.191   +10 33 03.73  .51888 1.5067 163.3 22.2  44d  96
2023 09 27 16  23 17 38.935   +10 33 17.16  .51878 1.5066 163.3 22.2  44d  96
2023 09 27 17  23 17 37.680   +10 33 30.57  .51868 1.5064 163.2 22.2  44d  96
2023 09 27 18  23 17 36.427   +10 33 43.97  .51858 1.5062 163.2 22.2  44d  96
2023 09 27 19  23 17 35.176   +10 33 57.34  .51848 1.5061 163.2 22.2  44d  96
2023 09 27 20  23 17 33.927   +10 34 10.71  .51838 1.5059 163.1 22.2  44d  96
2023 09 27 21  23 17 32.680   +10 34 24.05  .51829 1.5058 163.1 22.2  44d  96
2023 09 27 22  23 17 31.435   +10 34 37.39  .51819 1.5056 163.1 22.2  44d  96
2023 09 27 23  23 17 30.191   +10 34 50.70  .51809 1.5054 163.1 22.2  44d  96
2023 09 28 00  23 17 28.950   +10 35 04.00  .51799 1.5053 163.0 22.2  44d  96
2023 09 28 01  23 17 27.711   +10 35 17.28  .51789 1.5051 163.0 22.2  44d  96
2023 09 28 02  23 17 26.473   +10 35 30.55  .51780 1.5050 163.0 22.2  44d  96
2023 09 28 03  23 17 25.238   +10 35 43.80  .51770 1.5048 162.9 22.2  44d  96
2023 09 28 04  23 17 24.004   +10 35 57.03  .51760 1.5046 162.9 22.2  44d  96
2023 09 28 05  23 17 22.773   +10 36 10.25  .51751 1.5045 162.9 22.2  44d  96
2023 09 28 06  23 17 21.543   +10 36 23.45  .51741 1.5043 162.8 22.2  44d  96
2023 09 28 07  23 17 20.316   +10 36 36.63  .51731 1.5042 162.8 22.2  44d  96
2023 09 28 08  23 17 19.090   +10 36 49.80  .51722 1.5040 162.8 22.2  44d  96
2023 09 28 09  23 17 17.867   +10 37 02.96  .51712 1.5039 162.8 22.2  44d  96
2023 09 28 10  23 17 16.646   +10 37 16.09  .51703 1.5037 162.7 22.2  44d  96
2023 09 28 11  23 17 15.426   +10 37 29.22  .51693 1.5035 162.7 22.2  44d  96
2023 09 28 12  23 17 14.209   +10 37 42.32  .51684 1.5034 162.7 22.2  44d  96
2023 09 28 13  23 17 12.994   +10 37 55.41  .51674 1.5032 162.6 22.2  44d  96
2023 09 28 14  23 17 11.780   +10 38 08.48  .51665 1.5031 162.6 22.2  44d  96
2023 09 28 15  23 17 10.569   +10 38 21.54  .51655 1.5029 162.6 22.2  44d  96
2023 09 28 16  23 17 09.360   +10 38 34.58  .51646 1.5027 162.5 22.2  44d  96
2023 09 28 17  23 17 08.153   +10 38 47.61  .51637 1.5026 162.5 22.2  44d  96
2023 09 28 18  23 17 06.948   +10 39 00.62  .51627 1.5024 162.5 22.2  44d  96
2023 09 28 19  23 17 05.745   +10 39 13.61  .51618 1.5023 162.5 22.2  44d  96
2023 09 28 20  23 17 04.545   +10 39 26.59  .51609 1.5021 162.4 22.2  44d  96
2023 09 28 21  23 17 03.346   +10 39 39.55  .51600 1.5020 162.4 22.2  44d  96
2023 09 28 22  23 17 02.150   +10 39 52.49  .51590 1.5018 162.4 22.2  44d  96
2023 09 28 23  23 17 00.955   +10 40 05.42  .51581 1.5016 162.3 22.2  44d  96
2023 09 29 00  23 16 59.763   +10 40 18.34  .51572 1.5015 162.3 22.2  44d  96